Time,TemperatureF,DewpointF,PressureIn,WindDirection,WindDirectionDegrees,WindSpeedMPH,WindSpeedGustMPH,Humidity,HourlyPrecipIn,Conditions,Clouds,dailyrainin,SoftwareType,DateUTC
2013-02-11 00:00:00,25.0,18.2,-100.00,North,353,0.0,0.0,75,0.00,,,0.00,VWS V14.01,2013-02-11 08:00:00,
2013-02-11 00:05:00,25.0,17.9,-100.00,North,353,0.0,0.0,74,0.00,,,0.00,VWS V14.01,2013-02-11 08:05:00,
2013-02-11 00:10:00,25.0,18.2,-100.00,North,353,0.0,0.0,75,0.00,,,0.00,VWS V14.01,2013-02-11 08:10:00,
2013-02-11 00:15:00,25.0,18.2,-100.00,North,353,0.0,0.0,75,0.00,,,0.00,VWS V14.01,2013-02-11 08:15:00,
2013-02-11 00:20:00,25.0,18.5,-100.00,North,357,0.0,0.0,76,0.00,,,0.00,VWS V14.01,2013-02-11 08:20:00,
2013-02-11 00:25:00,25.2,18.7,-100.00,North,357,0.0,0.0,76,0.00,,,0.00,VWS V14.01,2013-02-11 08:25:00,
2013-02-11 00:30:00,25.2,18.4,-100.00,North,357,0.0,0.0,75,0.00,,,0.00,VWS V14.01,2013-02-11 08:30:00,
2013-02-11 00:35:00,25.2,18.4,-100.00,NNE,22,0.0,0.0,75,0.00,,,0.00,VWS V14.01,2013-02-11 08:35:00,
2013-02-11 00:40:00,25.2,18.4,-100.00,SE,138,0.0,0.0,75,0.00,,,0.00,VWS V14.01,2013-02-11 08:40:00,
2013-02-11 00:45:00,25.2,18.4,-100.00,SSE,152,2.2,2.2,75,0.00,,,0.00,VWS V14.01,2013-02-11 08:45:00,
2013-02-11 00:50:00,25.3,18.5,-100.00,South,182,0.0,2.2,75,0.00,,,0.00,VWS V14.01,2013-02-11 08:50:00,
2013-02-11 00:55:00,25.7,18.6,-100.00,South,177,0.0,0.0,74,0.00,,,0.00,VWS V14.01,2013-02-11 08:55:00,
2013-02-11 01:00:00,25.7,18.6,-100.00,SSW,194,0.0,0.0,74,0.00,,,0.00,VWS V14.01,2013-02-11 09:00:00,
2013-02-11 01:05:00,25.5,18.4,-100.00,SSW,200,0.0,0.0,74,0.00,,,0.00,VWS V14.01,2013-02-11 09:05:00,
2013-02-11 01:10:00,25.5,18.4,-100.00,West,279,2.7,2.7,74,0.00,,,0.00,VWS V14.01,2013-02-11 09:10:00,
2013-02-11 01:15:00,25.3,18.2,-100.00,South,191,0.0,0.0,74,0.00,,,0.00,VWS V14.01,2013-02-11 09:15:00,
2013-02-11 01:20:00,25.3,18.2,-100.00,SSE,168,0.0,0.0,74,0.00,,,0.00,VWS V14.01,2013-02-11 09:20:00,
2013-02-11 01:25:00,25.5,18.1,-100.00,South,189,0.0,0.0,73,0.00,,,0.00,VWS V14.01,2013-02-11 09:25:00,
2013-02-11 01:30:00,25.3,17.9,-100.00,SSW,207,0.0,0.0,73,0.00,,,0.00,VWS V14.01,2013-02-11 09:30:00,
2013-02-11 01:35:00,25.3,17.9,-100.00,South,190,0.0,0.0,73,0.00,,,0.00,VWS V14.01,2013-02-11 09:35:00,
2013-02-11 01:40:00,25.2,17.7,-100.00,South,179,0.0,0.0,73,0.00,,,0.00,VWS V14.01,2013-02-11 09:40:00,
2013-02-11 01:45:00,25.2,17.7,-100.00,SSE,158,0.0,0.0,73,0.00,,,0.00,VWS V14.01,2013-02-11 09:45:00,
2013-02-11 01:50:00,25.0,17.6,-100.00,South,170,0.0,0.0,73,0.00,,,0.00,VWS V14.01,2013-02-11 09:50:00,
2013-02-11 01:55:00,25.0,17.6,-100.00,South,184,2.2,2.2,73,0.00,,,0.00,VWS V14.01,2013-02-11 09:55:00,
2013-02-11 02:00:00,25.0,17.6,-100.00,SSE,150,0.0,0.0,73,0.00,,,0.00,VWS V14.01,2013-02-11 10:00:00,
2013-02-11 02:05:00,25.0,17.6,-100.00,South,169,0.0,0.0,73,0.00,,,0.00,VWS V14.01,2013-02-11 10:05:00,
2013-02-11 02:10:00,25.0,17.9,-100.00,South,174,0.0,0.0,74,0.00,,,0.00,VWS V14.01,2013-02-11 10:10:00,
2013-02-11 02:15:00,25.0,17.9,-100.00,SSE,168,0.0,0.0,74,0.00,,,0.00,VWS V14.01,2013-02-11 10:15:00,
2013-02-11 02:20:00,25.2,17.7,-100.00,SSE,148,0.0,0.0,73,0.00,,,0.00,VWS V14.01,2013-02-11 10:20:00,
2013-02-11 02:25:00,25.0,17.6,-100.00,SSE,148,0.0,0.0,73,0.00,,,0.00,VWS V14.01,2013-02-11 10:25:00,
2013-02-11 02:30:00,24.8,17.7,-100.00,SSE,167,0.0,0.0,74,0.00,,,0.00,VWS V14.01,2013-02-11 10:30:00,
2013-02-11 02:35:00,24.8,17.7,-100.00,SSE,161,0.0,0.0,74,0.00,,,0.00,VWS V14.01,2013-02-11 10:35:00,
2013-02-11 02:40:00,24.6,17.5,-100.00,SE,128,0.0,0.0,74,0.00,,,0.00,VWS V14.01,2013-02-11 10:40:00,
2013-02-11 02:45:00,24.4,17.7,-100.00,SE,128,0.0,0.0,75,0.00,,,0.00,VWS V14.01,2013-02-11 10:45:00,
2013-02-11 02:50:00,24.4,17.7,-100.00,SE,128,0.0,0.0,75,0.00,,,0.00,VWS V14.01,2013-02-11 10:50:00,
2013-02-11 02:55:00,24.3,17.5,-100.00,SE,128,0.0,0.0,75,0.00,,,0.00,VWS V14.01,2013-02-11 10:55:00,
2013-02-11 03:00:00,24.1,17.3,-100.00,SSE,149,0.0,0.0,75,0.00,,,0.00,VWS V14.01,2013-02-11 11:00:00,
2013-02-11 03:05:00,24.1,17.3,-100.00,SSE,149,0.0,0.0,75,0.00,,,0.00,VWS V14.01,2013-02-11 11:05:00,
2013-02-11 03:10:00,23.9,17.1,-100.00,SSE,149,0.0,0.0,75,0.00,,,0.00,VWS V14.01,2013-02-11 11:10:00,
2013-02-11 03:15:00,23.7,17.3,-100.00,SSE,149,0.0,0.0,76,0.00,,,0.00,VWS V14.01,2013-02-11 11:15:00,
2013-02-11 03:20:00,23.7,17.6,-100.00,SSE,155,0.0,0.0,77,0.00,,,0.00,VWS V14.01,2013-02-11 11:20:00,
2013-02-11 03:25:00,23.9,17.8,-100.00,SSE,166,0.0,0.0,77,0.00,,,0.00,VWS V14.01,2013-02-11 11:25:00,
2013-02-11 03:30:00,23.9,17.8,-100.00,SSE,166,0.0,0.0,77,0.00,,,0.00,VWS V14.01,2013-02-11 11:30:00,
2013-02-11 03:35:00,23.7,17.3,-100.00,South,169,0.0,0.0,76,0.00,,,0.00,VWS V14.01,2013-02-11 11:35:00,
2013-02-11 03:40:00,23.7,17.6,-100.00,South,169,0.0,0.0,77,0.00,,,0.00,VWS V14.01,2013-02-11 11:40:00,
2013-02-11 03:45:00,23.7,17.6,-100.00,South,169,0.0,0.0,77,0.00,,,0.00,VWS V14.01,2013-02-11 11:45:00,
2013-02-11 03:50:00,23.7,17.3,-100.00,South,169,0.0,0.0,76,0.00,,,0.00,VWS V14.01,2013-02-11 11:50:00,
2013-02-11 03:55:00,23.5,17.1,-100.00,SE,132,0.0,0.0,76,0.00,,,0.00,VWS V14.01,2013-02-11 11:55:00,
2013-02-11 04:00:00,23.5,17.1,-100.00,SE,133,0.0,0.0,76,0.00,,,0.00,VWS V14.01,2013-02-11 12:00:00,
2013-02-11 04:05:00,23.4,16.9,-100.00,SE,133,0.0,0.0,76,0.00,,,0.00,VWS V14.01,2013-02-11 12:05:00,
2013-02-11 04:10:00,23.2,16.5,-100.00,SE,133,0.0,0.0,75,0.00,,,0.00,VWS V14.01,2013-02-11 12:10:00,
2013-02-11 04:15:00,22.8,16.4,-100.00,SE,133,0.0,0.0,76,0.00,,,0.00,VWS V14.01,2013-02-11 12:15:00,
2013-02-11 04:20:00,22.8,16.7,-100.00,SE,133,0.0,0.0,77,0.00,,,0.00,VWS V14.01,2013-02-11 12:20:00,
2013-02-11 04:25:00,22.5,16.4,-100.00,SE,133,0.0,0.0,77,0.00,,,0.00,VWS V14.01,2013-02-11 12:25:00,
2013-02-11 04:29:00,22.5,16.4,-100.00,SE,133,0.0,0.0,77,0.00,,,0.00,VWS V14.01,2013-02-11 12:29:00,
2013-02-11 04:34:00,22.3,16.8,-100.00,SE,133,0.0,0.0,79,0.00,,,0.00,VWS V14.01,2013-02-11 12:34:00,
2013-02-11 04:39:00,22.1,16.9,-100.00,SE,132,0.0,0.0,80,0.00,,,0.00,VWS V14.01,2013-02-11 12:39:00,
2013-02-11 04:44:00,21.9,16.4,-100.00,SE,132,0.0,0.0,79,0.00,,,0.00,VWS V14.01,2013-02-11 12:44:00,
2013-02-11 04:49:00,21.9,17.0,-100.00,SE,132,0.0,0.0,81,0.00,,,0.00,VWS V14.01,2013-02-11 12:49:00,
2013-02-11 04:54:00,21.7,16.5,-100.00,SE,132,0.0,0.0,80,0.00,,,0.00,VWS V14.01,2013-02-11 12:54:00,
2013-02-11 04:59:00,21.6,16.4,-100.00,SE,133,0.0,0.0,80,0.00,,,0.00,VWS V14.01,2013-02-11 12:59:00,
2013-02-11 05:04:00,21.4,16.5,-100.00,SE,132,0.0,0.0,81,0.00,,,0.00,VWS V14.01,2013-02-11 13:04:00,
2013-02-11 05:09:00,21.4,16.5,-100.00,SE,132,0.0,0.0,81,0.00,,,0.00,VWS V14.01,2013-02-11 13:09:00,
2013-02-11 05:14:00,21.2,16.9,-100.00,SE,133,0.0,0.0,83,0.00,,,0.00,VWS V14.01,2013-02-11 13:14:00,
2013-02-11 05:19:00,21.2,16.6,-100.00,SE,133,0.0,0.0,82,0.00,,,0.00,VWS V14.01,2013-02-11 13:19:00,
2013-02-11 05:25:00,21.0,16.4,-100.00,SE,133,0.0,0.0,82,0.00,,,0.00,VWS V14.01,2013-02-11 13:25:00,
2013-02-11 05:30:00,20.8,16.2,-100.00,SE,133,0.0,0.0,82,0.00,,,0.00,VWS V14.01,2013-02-11 13:30:00,
2013-02-11 05:35:00,20.7,16.0,-100.00,SE,133,0.0,0.0,82,0.00,,,0.00,VWS V14.01,2013-02-11 13:35:00,
2013-02-11 05:40:00,20.5,15.9,-100.00,SE,133,0.0,0.0,82,0.00,,,0.00,VWS V14.01,2013-02-11 13:40:00,
2013-02-11 05:44:00,20.3,16.0,-100.00,SE,133,0.0,0.0,83,0.00,,,0.00,VWS V14.01,2013-02-11 13:44:00,
2013-02-11 05:49:00,20.3,16.0,-100.00,SE,133,0.0,0.0,83,0.00,,,0.00,VWS V14.01,2013-02-11 13:49:00,
2013-02-11 05:54:00,20.3,16.0,-100.00,SE,133,0.0,0.0,83,0.00,,,0.00,VWS V14.01,2013-02-11 13:54:00,
2013-02-11 05:59:00,20.3,16.0,-100.00,SE,133,0.0,0.0,83,0.00,,,0.00,VWS V14.01,2013-02-11 13:59:00,
2013-02-11 06:04:00,20.1,15.5,-100.00,SE,133,0.0,0.0,82,0.00,,,0.00,VWS V14.01,2013-02-11 14:04:00,
2013-02-11 06:09:00,19.8,15.2,-100.00,SE,133,0.0,0.0,82,0.00,,,0.00,VWS V14.01,2013-02-11 14:09:00,
2013-02-11 06:14:00,19.6,15.0,-100.00,SE,133,0.0,0.0,82,0.00,,,0.00,VWS V14.01,2013-02-11 14:14:00,
2013-02-11 06:19:00,19.4,15.1,-100.00,SE,133,0.0,0.0,83,0.00,,,0.00,VWS V14.01,2013-02-11 14:19:00,
2013-02-11 06:24:00,19.4,15.4,-100.00,SE,133,0.0,0.0,84,0.00,,,0.00,VWS V14.01,2013-02-11 14:24:00,
2013-02-11 06:29:00,19.6,15.5,-100.00,SE,132,0.0,0.0,84,0.00,,,0.00,VWS V14.01,2013-02-11 14:29:00,
2013-02-11 06:34:00,19.8,15.7,-100.00,SE,133,0.0,0.0,84,0.00,,,0.00,VWS V14.01,2013-02-11 14:34:00,
2013-02-11 06:39:00,19.6,15.5,-100.00,SE,133,0.0,0.0,84,0.00,,,0.00,VWS V14.01,2013-02-11 14:39:00,
2013-02-11 06:44:00,19.6,15.5,-100.00,SE,133,0.0,0.0,84,0.00,,,0.00,VWS V14.01,2013-02-11 14:44:00,
2013-02-11 06:49:00,19.6,15.5,-100.00,SE,133,0.0,0.0,84,0.00,,,0.00,VWS V14.01,2013-02-11 14:49:00,
2013-02-11 06:54:00,19.4,15.4,-100.00,SE,133,0.0,0.0,84,0.00,,,0.00,VWS V14.01,2013-02-11 14:54:00,
2013-02-11 06:59:00,19.2,15.2,-100.00,SE,133,0.0,0.0,84,0.00,,,0.00,VWS V14.01,2013-02-11 14:59:00,
2013-02-11 07:04:00,19.2,15.2,-100.00,SE,133,0.0,0.0,84,0.00,,,0.00,VWS V14.01,2013-02-11 15:04:00,
2013-02-11 07:09:00,19.0,15.0,-100.00,SE,133,0.0,0.0,84,0.00,,,0.00,VWS V14.01,2013-02-11 15:09:00,
2013-02-11 07:14:00,19.2,15.5,-100.00,SE,133,0.0,0.0,85,0.00,,,0.00,VWS V14.01,2013-02-11 15:14:00,
2013-02-11 07:19:00,19.4,15.9,-100.00,SE,132,0.0,0.0,86,0.00,,,0.00,VWS V14.01,2013-02-11 15:19:00,
2013-02-11 07:24:00,19.8,16.3,-100.00,SE,137,0.0,0.0,86,0.00,,,0.00,VWS V14.01,2013-02-11 15:24:00,
2013-02-11 07:29:00,20.1,16.9,-100.00,SE,145,0.0,0.0,87,0.00,,,0.00,VWS V14.01,2013-02-11 15:29:00,
2013-02-11 07:34:00,20.5,17.8,-100.00,SSE,152,3.1,3.1,89,0.00,,,0.00,VWS V14.01,2013-02-11 15:34:00,
2013-02-11 07:39:00,21.0,18.3,-100.00,SSE,160,0.0,0.0,89,0.00,,,0.00,VWS V14.01,2013-02-11 15:39:00,
2013-02-11 07:44:00,21.4,18.4,-100.00,SE,142,0.0,0.0,88,0.00,,,0.00,VWS V14.01,2013-02-11 15:44:00,
2013-02-11 07:49:00,21.9,18.6,-100.00,SSE,158,0.0,2.7,87,0.00,,,0.00,VWS V14.01,2013-02-11 15:49:00,
2013-02-11 07:54:00,22.1,18.8,-100.00,South,179,0.0,4.0,87,0.00,,,0.00,VWS V14.01,2013-02-11 15:54:00,
2013-02-11 07:59:00,22.6,19.4,-100.00,SSW,197,0.0,4.5,87,0.00,,,0.00,VWS V14.01,2013-02-11 15:59:00,
2013-02-11 08:04:00,23.2,19.9,-100.00,SW,233,3.1,3.6,87,0.00,,,0.00,VWS V14.01,2013-02-11 16:04:00,
2013-02-11 08:09:00,23.5,20.0,-100.00,South,169,0.0,0.0,86,0.00,,,0.00,VWS V14.01,2013-02-11 16:09:00,
2013-02-11 08:14:00,23.7,19.9,-100.00,SSE,149,3.6,5.8,85,0.00,,,0.00,VWS V14.01,2013-02-11 16:14:00,
2013-02-11 08:19:00,23.9,20.1,-100.00,SSW,194,0.0,0.0,85,0.00,,,0.00,VWS V14.01,2013-02-11 16:19:00,
2013-02-11 08:24:00,24.3,19.6,-100.00,SSW,196,2.7,3.6,82,0.00,,,0.00,VWS V14.01,2013-02-11 16:24:00,
2013-02-11 08:29:00,24.4,19.7,-100.00,SSE,149,0.0,0.0,82,0.00,,,0.00,VWS V14.01,2013-02-11 16:29:00,
2013-02-11 08:34:00,24.8,20.1,-100.00,South,186,0.0,3.1,82,0.00,,,0.00,VWS V14.01,2013-02-11 16:34:00,
2013-02-11 08:39:00,25.3,20.3,-100.00,SSW,196,4.0,4.0,81,0.00,,,0.00,VWS V14.01,2013-02-11 16:39:00,
2013-02-11 08:44:00,25.5,20.5,-100.00,SW,224,0.0,0.0,81,0.00,,,0.00,VWS V14.01,2013-02-11 16:44:00,
2013-02-11 08:49:00,25.9,20.6,-100.00,SW,230,0.0,0.0,80,0.00,,,0.00,VWS V14.01,2013-02-11 16:49:00,
2013-02-11 08:54:00,26.1,20.5,-100.00,SSE,149,3.1,3.1,79,0.00,,,0.00,VWS V14.01,2013-02-11 16:54:00,
2013-02-11 08:59:00,26.4,20.8,-100.00,SSE,167,0.0,0.0,79,0.00,,,0.00,VWS V14.01,2013-02-11 16:59:00,
2013-02-11 09:04:00,27.0,20.4,-100.00,WSW,245,0.0,0.0,76,0.00,,,0.00,VWS V14.01,2013-02-11 17:04:00,
2013-02-11 09:09:00,27.1,20.3,-100.00,SSW,196,0.0,0.0,75,0.00,,,0.00,VWS V14.01,2013-02-11 17:09:00,
2013-02-11 09:14:00,27.5,20.3,-100.00,SW,233,0.0,0.0,74,0.00,,,0.00,VWS V14.01,2013-02-11 17:14:00,
2013-02-11 09:19:00,27.9,21.0,-100.00,WSW,240,0.0,0.0,75,0.00,,,0.00,VWS V14.01,2013-02-11 17:19:00,
2013-02-11 09:24:00,28.2,21.0,-100.00,SW,236,0.0,0.0,74,0.00,,,0.00,VWS V14.01,2013-02-11 17:24:00,
2013-02-11 09:29:00,28.6,21.0,-100.00,SSW,204,3.6,4.0,73,0.00,,,0.00,VWS V14.01,2013-02-11 17:29:00,
2013-02-11 09:34:00,29.3,21.4,-100.00,South,180,0.0,3.1,72,0.00,,,0.00,VWS V14.01,2013-02-11 17:34:00,
2013-02-11 09:39:00,29.8,21.6,-100.00,SW,224,0.0,3.1,71,0.00,,,0.00,VWS V14.01,2013-02-11 17:39:00,
2013-02-11 09:44:00,30.4,21.1,-100.00,SSW,195,0.0,0.0,68,0.00,,,0.00,VWS V14.01,2013-02-11 17:44:00,
2013-02-11 09:49:00,30.9,21.3,-100.00,South,181,5.4,5.4,67,0.00,,,0.00,VWS V14.01,2013-02-11 17:49:00,
2013-02-11 09:54:00,31.6,21.2,-100.00,SSW,195,2.7,4.0,65,0.00,,,0.00,VWS V14.01,2013-02-11 17:54:00,
2013-02-11 09:59:00,32.2,21.4,-100.00,SSE,160,3.1,5.4,64,0.00,,,0.00,VWS V14.01,2013-02-11 17:59:00,
2013-02-11 10:04:00,32.5,21.0,-100.00,SSW,212,0.0,2.7,62,0.00,,,0.00,VWS V14.01,2013-02-11 18:04:00,
2013-02-11 10:09:00,33.1,21.5,-100.00,South,182,2.2,3.1,62,0.00,,,0.00,VWS V14.01,2013-02-11 18:09:00,
2013-02-11 10:14:00,33.6,21.2,-100.00,SE,141,0.0,2.2,60,0.00,,,0.00,VWS V14.01,2013-02-11 18:14:00,
2013-02-11 10:19:00,34.2,20.5,-100.00,SSW,196,2.7,4.0,57,0.00,,,0.00,VWS V14.01,2013-02-11 18:19:00,
2013-02-11 10:24:00,34.7,20.6,-100.00,South,170,3.6,4.9,56,0.00,,,0.00,VWS V14.01,2013-02-11 18:24:00,
2013-02-11 10:29:00,35.4,20.9,-100.00,SSE,163,4.9,4.9,55,0.00,,,0.00,VWS V14.01,2013-02-11 18:29:00,
2013-02-11 10:34:00,35.8,20.8,-100.00,SSE,160,3.1,3.1,54,0.00,,,0.00,VWS V14.01,2013-02-11 18:34:00,
2013-02-11 10:39:00,36.3,21.3,-100.00,SSE,156,2.7,4.9,54,0.00,,,0.00,VWS V14.01,2013-02-11 18:39:00,
2013-02-11 10:44:00,37.0,20.6,-100.00,SSE,157,3.1,5.8,51,0.00,,,0.00,VWS V14.01,2013-02-11 18:44:00,
2013-02-11 10:49:00,37.6,20.6,-100.00,SSW,205,2.2,3.6,50,0.00,,,0.00,VWS V14.01,2013-02-11 18:49:00,
2013-02-11 10:54:00,38.1,20.7,-100.00,SSE,164,3.6,4.9,49,0.00,,,0.00,VWS V14.01,2013-02-11 18:54:00,
2013-02-11 10:59:00,38.5,20.5,-100.00,SE,137,2.7,3.6,48,0.00,,,0.00,VWS V14.01,2013-02-11 18:59:00,
2013-02-11 11:04:00,39.0,20.5,-100.00,South,183,3.6,4.5,47,0.00,,,0.00,VWS V14.01,2013-02-11 19:04:00,
2013-02-11 11:09:00,39.6,20.5,-100.00,SSE,162,3.6,3.6,46,0.00,,,0.00,VWS V14.01,2013-02-11 19:09:00,
2013-02-11 11:14:00,39.9,21.3,-100.00,SSW,193,0.0,0.0,47,0.00,,,0.00,VWS V14.01,2013-02-11 19:14:00,
2013-02-11 11:19:00,40.5,20.8,-100.00,WSW,239,0.0,3.1,45,0.00,,,0.00,VWS V14.01,2013-02-11 19:19:00,
2013-02-11 11:24:00,41.2,20.9,-100.00,NE,43,2.2,2.2,44,0.00,,,0.00,VWS V14.01,2013-02-11 19:24:00,
2013-02-11 11:29:00,41.5,20.7,-100.00,SSE,160,2.7,2.7,43,0.00,,,0.00,VWS V14.01,2013-02-11 19:29:00,
2013-02-11 11:34:00,42.1,21.2,-100.00,SSW,205,0.0,0.0,43,0.00,,,0.00,VWS V14.01,2013-02-11 19:34:00,
2013-02-11 11:39:00,43.2,21.1,-100.00,East,79,2.7,4.0,41,0.00,,,0.00,VWS V14.01,2013-02-11 19:39:00,
2013-02-11 11:44:00,43.3,20.6,-100.00,SE,143,0.0,0.0,40,0.00,,,0.00,VWS V14.01,2013-02-11 19:44:00,
2013-02-11 11:49:00,43.5,21.4,-100.00,SW,223,0.0,4.0,41,0.00,,,0.00,VWS V14.01,2013-02-11 19:49:00,
2013-02-11 11:54:00,43.7,21.0,-100.00,South,176,0.0,0.0,40,0.00,,,0.00,VWS V14.01,2013-02-11 19:54:00,
2013-02-11 11:59:00,44.2,22.0,-100.00,South,175,0.0,0.0,41,0.00,,,0.00,VWS V14.01,2013-02-11 19:59:00,
2013-02-11 12:04:00,44.4,21.6,-100.00,South,190,0.0,0.0,40,0.00,,,0.00,VWS V14.01,2013-02-11 20:04:00,
2013-02-11 12:09:00,44.8,22.0,-100.00,East,81,0.0,0.0,40,0.00,,,0.00,VWS V14.01,2013-02-11 20:09:00,
2013-02-11 12:14:00,45.0,21.5,-100.00,ENE,74,0.0,0.0,39,0.00,,,0.00,VWS V14.01,2013-02-11 20:14:00,
2013-02-11 12:19:00,45.1,21.7,-100.00,East,91,0.0,0.0,39,0.00,,,0.00,VWS V14.01,2013-02-11 20:19:00,
2013-02-11 12:24:00,45.1,21.1,-100.00,East,91,0.0,0.0,38,0.00,,,0.00,VWS V14.01,2013-02-11 20:24:00,
2013-02-11 12:29:00,44.8,20.7,-100.00,North,353,0.0,2.2,38,0.00,,,0.00,VWS V14.01,2013-02-11 20:29:00,
2013-02-11 12:34:00,45.0,20.9,-100.00,East,87,3.1,3.1,38,0.00,,,0.00,VWS V14.01,2013-02-11 20:34:00,
2013-02-11 12:39:00,45.3,21.8,-100.00,ENE,62,0.0,0.0,39,0.00,,,0.00,VWS V14.01,2013-02-11 20:39:00,
2013-02-11 12:44:00,45.9,22.3,-100.00,NNW,333,0.0,0.0,39,0.00,,,0.00,VWS V14.01,2013-02-11 20:44:00,
2013-02-11 12:49:00,46.2,22.6,-100.00,NNW,333,0.0,0.0,39,0.00,,,0.00,VWS V14.01,2013-02-11 20:49:00,
2013-02-11 12:54:00,46.4,22.2,-100.00,NNW,331,0.0,0.0,38,0.00,,,0.00,VWS V14.01,2013-02-11 20:54:00,
2013-02-11 12:59:00,46.0,22.5,-100.00,North,353,0.0,0.0,39,0.00,,,0.00,VWS V14.01,2013-02-11 20:59:00,
2013-02-11 13:04:00,45.9,22.3,-100.00,NNW,338,0.0,0.0,39,0.00,,,0.00,VWS V14.01,2013-02-11 21:04:00,
2013-02-11 13:09:00,45.7,22.2,-100.00,ENE,74,0.0,0.0,39,0.00,,,0.00,VWS V14.01,2013-02-11 21:09:00,
2013-02-11 13:14:00,45.5,22.0,-100.00,NNE,19,0.0,0.0,39,0.00,,,0.00,VWS V14.01,2013-02-11 21:14:00,
2013-02-11 13:19:00,45.3,21.8,-100.00,NNE,18,0.0,0.0,39,0.00,,,0.00,VWS V14.01,2013-02-11 21:19:00,
2013-02-11 13:24:00,45.5,22.6,-100.00,East,84,0.0,3.6,40,0.00,,,0.00,VWS V14.01,2013-02-11 21:24:00,
2013-02-11 13:29:00,46.0,23.1,-100.00,NNW,328,0.0,0.0,40,0.00,,,0.00,VWS V14.01,2013-02-11 21:29:00,
2013-02-11 13:34:00,46.4,22.8,-100.00,NNW,327,2.2,3.1,39,0.00,,,0.00,VWS V14.01,2013-02-11 21:34:00,
2013-02-11 13:39:00,46.6,23.0,-100.00,NNW,341,0.0,2.7,39,0.00,,,0.00,VWS V14.01,2013-02-11 21:39:00,
2013-02-11 13:44:00,46.4,22.8,-100.00,ENE,70,0.0,0.0,39,0.00,,,0.00,VWS V14.01,2013-02-11 21:44:00,
2013-02-11 13:49:00,46.8,23.7,-100.00,NNW,328,0.0,3.6,40,0.00,,,0.00,VWS V14.01,2013-02-11 21:49:00,
2013-02-11 13:54:00,47.1,23.5,-100.00,NNW,341,0.0,0.0,39,0.00,,,0.00,VWS V14.01,2013-02-11 21:54:00,
2013-02-11 13:59:00,47.3,23.6,-100.00,ENE,65,0.0,0.0,39,0.00,,,0.00,VWS V14.01,2013-02-11 21:59:00,
2013-02-11 14:04:00,47.5,23.8,-100.00,NNE,27,0.0,0.0,39,0.00,,,0.00,VWS V14.01,2013-02-11 22:04:00,
2013-02-11 14:09:00,48.0,24.3,-100.00,NNW,343,0.0,3.1,39,0.00,,,0.00,VWS V14.01,2013-02-11 22:09:00,
2013-02-11 14:14:00,48.6,24.7,-100.00,North,10,3.1,3.1,39,0.00,,,0.00,VWS V14.01,2013-02-11 22:14:00,
2013-02-11 14:19:00,48.7,24.9,-100.00,NW,306,0.0,0.0,39,0.00,,,0.00,VWS V14.01,2013-02-11 22:19:00,
2013-02-11 14:24:00,49.3,25.4,-100.00,NNW,335,0.0,0.0,39,0.00,,,0.00,VWS V14.01,2013-02-11 22:24:00,
2013-02-11 14:29:00,49.5,25.5,-100.00,NNW,340,3.1,5.4,39,0.00,,,0.00,VWS V14.01,2013-02-11 22:29:00,
2013-02-11 14:34:00,49.5,25.5,-100.00,NNW,332,2.7,5.4,39,0.00,,,0.00,VWS V14.01,2013-02-11 22:34:00,
2013-02-11 14:39:00,49.3,25.4,-100.00,North,353,0.0,0.0,39,0.00,,,0.00,VWS V14.01,2013-02-11 22:39:00,
2013-02-11 14:44:00,49.1,25.2,-100.00,NNW,330,3.6,5.8,39,0.00,,,0.00,VWS V14.01,2013-02-11 22:44:00,
2013-02-11 14:49:00,49.1,25.2,-100.00,North,357,0.0,0.0,39,0.00,,,0.00,VWS V14.01,2013-02-11 22:49:00,
2013-02-11 14:54:00,49.1,25.8,-100.00,North,0,2.7,3.1,40,0.00,,,0.00,VWS V14.01,2013-02-11 22:54:00,
2013-02-11 14:59:00,49.3,26.0,-100.00,WNW,303,3.1,4.0,40,0.00,,,0.00,VWS V14.01,2013-02-11 22:59:00,
2013-02-11 15:04:00,49.1,25.8,-100.00,NW,307,4.0,4.0,40,0.00,,,0.00,VWS V14.01,2013-02-11 23:04:00,
2013-02-11 15:09:00,49.3,26.0,-100.00,North,5,2.7,4.9,40,0.00,,,0.00,VWS V14.01,2013-02-11 23:09:00,
2013-02-11 15:14:00,49.6,26.3,-100.00,NNE,14,3.6,4.9,40,0.00,,,0.00,VWS V14.01,2013-02-11 23:14:00,
2013-02-11 15:19:00,49.5,26.2,-100.00,North,357,2.7,2.7,40,0.00,,,0.00,VWS V14.01,2013-02-11 23:19:00,
2013-02-11 15:24:00,48.9,25.7,-100.00,NNE,20,2.7,2.7,40,0.00,,,0.00,VWS V14.01,2013-02-11 23:24:00,
2013-02-11 15:29:00,48.4,25.2,-100.00,NW,319,3.6,3.6,40,0.00,,,0.00,VWS V14.01,2013-02-11 23:29:00,
2013-02-11 15:34:00,48.4,25.8,-100.00,North,1,2.7,3.1,41,0.00,,,0.00,VWS V14.01,2013-02-11 23:34:00,
2013-02-11 15:39:00,48.4,25.8,-100.00,NNW,335,5.4,5.4,41,0.00,,,0.00,VWS V14.01,2013-02-11 23:39:00,
2013-02-11 15:44:00,48.4,25.8,-100.00,North,0,3.6,6.3,41,0.00,,,0.00,VWS V14.01,2013-02-11 23:44:00,
2013-02-11 15:49:00,48.2,25.6,-100.00,NW,322,2.7,5.4,41,0.00,,,0.00,VWS V14.01,2013-02-11 23:49:00,
2013-02-11 15:54:00,48.2,25.6,-100.00,NW,304,2.7,4.9,41,0.00,,,0.00,VWS V14.01,2013-02-11 23:54:00,
2013-02-11 15:59:00,47.8,25.3,-100.00,SW,219,2.2,2.2,41,0.00,,,0.00,VWS V14.01,2013-02-11 23:59:00,
2013-02-11 16:04:00,47.5,25.5,-100.00,NW,321,3.6,4.0,42,0.00,,,0.00,VWS V14.01,2013-02-12 00:04:00,
2013-02-11 16:09:00,47.1,25.2,-100.00,NNW,345,3.6,3.6,42,0.00,,,0.00,VWS V14.01,2013-02-12 00:09:00,
2013-02-11 16:14:00,46.9,25.1,-100.00,North,353,3.1,4.9,42,0.00,,,0.00,VWS V14.01,2013-02-12 00:14:00,
2013-02-11 16:19:00,46.9,25.1,-100.00,ENE,65,0.0,0.0,42,0.00,,,0.00,VWS V14.01,2013-02-12 00:19:00,
2013-02-11 16:24:00,46.9,25.1,-100.00,North,357,0.0,0.0,42,0.00,,,0.00,VWS V14.01,2013-02-12 00:24:00,
2013-02-11 16:29:00,46.8,24.9,-100.00,South,174,2.7,2.7,42,0.00,,,0.00,VWS V14.01,2013-02-12 00:29:00,
2013-02-11 16:34:00,46.6,25.3,-100.00,NE,38,4.9,6.3,43,0.00,,,0.00,VWS V14.01,2013-02-12 00:34:00,
2013-02-11 16:39:00,46.0,25.4,-100.00,NNW,342,0.0,0.0,44,0.00,,,0.00,VWS V14.01,2013-02-12 00:39:00,
2013-02-11 16:44:00,45.3,25.2,-100.00,NNW,338,0.0,0.0,45,0.00,,,0.00,VWS V14.01,2013-02-12 00:44:00,
2013-02-11 16:49:00,45.1,25.6,-100.00,NW,313,0.0,3.1,46,0.00,,,0.00,VWS V14.01,2013-02-12 00:49:00,
2013-02-11 16:54:00,44.8,25.3,-100.00,NW,324,2.2,2.2,46,0.00,,,0.00,VWS V14.01,2013-02-12 00:54:00,
2013-02-11 16:59:00,44.4,26.0,-100.00,NNW,339,0.0,0.0,48,0.00,,,0.00,VWS V14.01,2013-02-12 00:59:00,
2013-02-11 17:04:00,44.1,26.1,-100.00,North,350,0.0,0.0,49,0.00,,,0.00,VWS V14.01,2013-02-12 01:04:00,
2013-02-11 17:09:00,43.7,25.8,-100.00,North,357,0.0,0.0,49,0.00,,,0.00,VWS V14.01,2013-02-12 01:09:00,
2013-02-11 17:14:00,43.3,25.5,-100.00,ENE,72,4.9,4.9,49,0.00,,,0.00,VWS V14.01,2013-02-12 01:14:00,
2013-02-11 17:19:00,43.0,25.6,-100.00,North,350,0.0,0.0,50,0.00,,,0.00,VWS V14.01,2013-02-12 01:19:00,
2013-02-11 17:24:00,42.6,25.8,-100.00,NNE,20,0.0,0.0,51,0.00,,,0.00,VWS V14.01,2013-02-12 01:24:00,
2013-02-11 17:29:00,42.3,25.4,-100.00,NNW,345,0.0,0.0,51,0.00,,,0.00,VWS V14.01,2013-02-12 01:29:00,
2013-02-11 17:34:00,42.1,25.7,-100.00,NNW,331,0.0,0.0,52,0.00,,,0.00,VWS V14.01,2013-02-12 01:34:00,
2013-02-11 17:39:00,41.9,25.6,-100.00,NNE,15,0.0,0.0,52,0.00,,,0.00,VWS V14.01,2013-02-12 01:39:00,
2013-02-11 17:44:00,41.5,25.2,-100.00,NNE,15,0.0,0.0,52,0.00,,,0.00,VWS V14.01,2013-02-12 01:44:00,
2013-02-11 17:49:00,41.2,24.9,-100.00,North,5,0.0,0.0,52,0.00,,,0.00,VWS V14.01,2013-02-12 01:49:00,
2013-02-11 17:54:00,40.8,25.0,-100.00,North,5,0.0,0.0,53,0.00,,,0.00,VWS V14.01,2013-02-12 01:54:00,
2013-02-11 17:59:00,40.3,25.4,-100.00,WSW,256,0.0,0.0,55,0.00,,,0.00,VWS V14.01,2013-02-12 01:59:00,
2013-02-11 18:04:00,39.4,24.6,-100.00,WSW,256,0.0,0.0,55,0.00,,,0.00,VWS V14.01,2013-02-12 02:04:00,
2013-02-11 18:09:00,38.8,24.9,-100.00,WSW,256,0.0,0.0,57,0.00,,,0.00,VWS V14.01,2013-02-12 02:09:00,
2013-02-11 18:14:00,38.3,25.2,-100.00,West,260,0.0,0.0,59,0.00,,,0.00,VWS V14.01,2013-02-12 02:14:00,
2013-02-11 18:19:00,38.1,25.1,-100.00,West,260,0.0,0.0,59,0.00,,,0.00,VWS V14.01,2013-02-12 02:19:00,
2013-02-11 18:24:00,37.4,24.4,-100.00,West,260,0.0,0.0,59,0.00,,,0.00,VWS V14.01,2013-02-12 02:24:00,
2013-02-11 18:29:00,36.9,24.3,-100.00,West,260,0.0,0.0,60,0.00,,,0.00,VWS V14.01,2013-02-12 02:29:00,
2013-02-11 18:34:00,36.3,24.2,-100.00,West,260,0.0,0.0,61,0.00,,,0.00,VWS V14.01,2013-02-12 02:34:00,
2013-02-11 18:39:00,35.8,24.8,-100.00,West,260,0.0,0.0,64,0.00,,,0.00,VWS V14.01,2013-02-12 02:39:00,
2013-02-11 18:44:00,35.4,24.5,-100.00,West,260,0.0,0.0,64,0.00,,,0.00,VWS V14.01,2013-02-12 02:44:00,
2013-02-11 18:49:00,35.2,25.0,-100.00,West,260,0.0,0.0,66,0.00,,,0.00,VWS V14.01,2013-02-12 02:49:00,
2013-02-11 18:54:00,34.9,24.3,-100.00,West,260,0.0,0.0,65,0.00,,,0.00,VWS V14.01,2013-02-12 02:54:00,
2013-02-11 18:59:00,34.7,26.3,-100.00,West,260,0.0,0.0,71,0.00,,,0.00,VWS V14.01,2013-02-12 02:59:00,
2013-02-11 19:04:00,34.7,26.3,-100.00,West,260,0.0,0.0,71,0.00,,,0.00,VWS V14.01,2013-02-12 03:04:00,
2013-02-11 19:09:00,34.7,25.9,-100.00,West,260,0.0,0.0,70,0.00,,,0.00,VWS V14.01,2013-02-12 03:09:00,
2013-02-11 19:14:00,34.3,25.2,-100.00,West,260,0.0,0.0,69,0.00,,,0.00,VWS V14.01,2013-02-12 03:14:00,
2013-02-11 19:19:00,33.8,25.1,-100.00,West,260,0.0,0.0,70,0.00,,,0.00,VWS V14.01,2013-02-12 03:19:00,
2013-02-11 19:24:00,34.0,25.6,-100.00,West,260,0.0,0.0,71,0.00,,,0.00,VWS V14.01,2013-02-12 03:24:00,
2013-02-11 19:29:00,34.0,25.2,-100.00,West,260,0.0,0.0,70,0.00,,,0.00,VWS V14.01,2013-02-12 03:29:00,
2013-02-11 19:34:00,33.8,25.4,-100.00,West,260,0.0,0.0,71,0.00,,,0.00,VWS V14.01,2013-02-12 03:34:00,
2013-02-11 19:39:00,33.4,25.4,-100.00,West,260,0.0,0.0,72,0.00,,,0.00,VWS V14.01,2013-02-12 03:39:00,
2013-02-11 19:44:00,33.3,24.9,-100.00,West,260,0.0,0.0,71,0.00,,,0.00,VWS V14.01,2013-02-12 03:44:00,
2013-02-11 19:49:00,33.3,26.5,-100.00,West,260,0.0,0.0,76,0.00,,,0.00,VWS V14.01,2013-02-12 03:49:00,
2013-02-11 19:54:00,33.1,26.0,-100.00,West,260,0.0,0.0,75,0.00,,,0.00,VWS V14.01,2013-02-12 03:54:00,
2013-02-11 19:59:00,32.7,25.4,-100.00,West,260,0.0,0.0,74,0.00,,,0.00,VWS V14.01,2013-02-12 03:59:00,
2013-02-11 20:04:00,32.5,25.2,-100.00,West,260,0.0,0.0,74,0.00,,,0.00,VWS V14.01,2013-02-12 04:04:00,
2013-02-11 20:09:00,32.4,25.0,-100.00,West,260,0.0,0.0,74,0.00,,,0.00,VWS V14.01,2013-02-12 04:09:00,
2013-02-11 20:14:00,32.2,24.8,-100.00,West,260,0.0,0.0,74,0.00,,,0.00,VWS V14.01,2013-02-12 04:14:00,
2013-02-11 20:19:00,31.6,24.0,-100.00,West,260,0.0,0.0,73,0.00,,,0.00,VWS V14.01,2013-02-12 04:19:00,
2013-02-11 20:24:00,31.3,24.0,-100.00,West,260,0.0,0.0,74,0.00,,,0.00,VWS V14.01,2013-02-12 04:24:00,
2013-02-11 20:29:00,31.1,24.1,-100.00,West,260,0.0,0.0,75,0.00,,,0.00,VWS V14.01,2013-02-12 04:29:00,
2013-02-11 20:34:00,30.9,23.9,-100.00,West,260,0.0,0.0,75,0.00,,,0.00,VWS V14.01,2013-02-12 04:34:00,
2013-02-11 20:39:00,31.1,24.4,-100.00,West,260,0.0,0.0,76,0.00,,,0.00,VWS V14.01,2013-02-12 04:39:00,
2013-02-11 20:44:00,31.1,24.8,-100.00,West,260,0.0,0.0,77,0.00,,,0.00,VWS V14.01,2013-02-12 04:44:00,
2013-02-11 20:49:00,30.7,24.4,-100.00,West,260,0.0,0.0,77,0.00,,,0.00,VWS V14.01,2013-02-12 04:49:00,
2013-02-11 20:54:00,30.6,24.5,-100.00,West,260,0.0,0.0,78,0.00,,,0.00,VWS V14.01,2013-02-12 04:54:00,
2013-02-11 20:59:00,30.7,25.0,-100.00,West,260,0.0,0.0,79,0.00,,,0.00,VWS V14.01,2013-02-12 04:59:00,
2013-02-11 21:00:00,30.7,24.7,-100.00,West,260,0.0,0.0,78,0.00,,,0.00,VWS V14.01,2013-02-12 05:00:00,
2013-02-11 21:05:00,30.4,24.7,-100.00,West,260,0.0,0.0,79,0.00,,,0.00,VWS V14.01,2013-02-12 05:05:00,
2013-02-11 21:10:00,30.4,24.7,-100.00,West,260,0.0,0.0,79,0.00,,,0.00,VWS V14.01,2013-02-12 05:10:00,
2013-02-11 21:15:00,30.6,24.8,-100.00,West,260,0.0,0.0,79,0.00,,,0.00,VWS V14.01,2013-02-12 05:15:00,
2013-02-11 21:20:00,30.4,24.7,-100.00,West,260,0.0,0.0,79,0.00,,,0.00,VWS V14.01,2013-02-12 05:20:00,
2013-02-11 21:25:00,30.4,24.7,-100.00,West,260,0.0,0.0,79,0.00,,,0.00,VWS V14.01,2013-02-12 05:25:00,
2013-02-11 21:30:00,30.2,24.8,-100.00,West,260,0.0,0.0,80,0.00,,,0.00,VWS V14.01,2013-02-12 05:30:00,
2013-02-11 21:35:00,30.0,24.9,-100.00,West,260,0.0,0.0,81,0.00,,,0.00,VWS V14.01,2013-02-12 05:35:00,
2013-02-11 21:40:00,29.8,24.7,-100.00,West,260,0.0,0.0,81,0.00,,,0.00,VWS V14.01,2013-02-12 05:40:00,
2013-02-11 21:45:00,30.0,24.9,-100.00,West,260,0.0,0.0,81,0.00,,,0.00,VWS V14.01,2013-02-12 05:45:00,
2013-02-11 21:50:00,30.0,24.9,-100.00,West,260,0.0,0.0,81,0.00,,,0.00,VWS V14.01,2013-02-12 05:50:00,
2013-02-11 21:55:00,29.8,25.0,-100.00,West,260,0.0,0.0,82,0.00,,,0.00,VWS V14.01,2013-02-12 05:55:00,
2013-02-11 22:00:00,29.8,25.0,-100.00,West,260,0.0,0.0,82,0.00,,,0.00,VWS V14.01,2013-02-12 06:00:00,
2013-02-11 22:05:00,30.0,25.5,-100.00,West,260,0.0,0.0,83,0.00,,,0.00,VWS V14.01,2013-02-12 06:05:00,
2013-02-11 22:10:00,30.2,26.2,-100.00,West,260,0.0,0.0,85,0.00,,,0.00,VWS V14.01,2013-02-12 06:10:00,
2013-02-11 22:15:00,29.7,25.1,-100.00,West,260,0.0,0.0,83,0.00,,,0.00,VWS V14.01,2013-02-12 06:15:00,
2013-02-11 22:20:00,29.3,24.8,-100.00,West,260,0.0,0.0,83,0.00,,,0.00,VWS V14.01,2013-02-12 06:20:00,
2013-02-11 22:25:00,28.9,24.4,-100.00,West,260,0.0,0.0,83,0.00,,,0.00,VWS V14.01,2013-02-12 06:25:00,
2013-02-11 22:30:00,28.8,24.3,-100.00,West,260,0.0,0.0,83,0.00,,,0.00,VWS V14.01,2013-02-12 06:30:00,
2013-02-11 22:35:00,28.9,25.3,-100.00,West,260,0.0,0.0,86,0.00,,,0.00,VWS V14.01,2013-02-12 06:35:00,
2013-02-11 22:40:00,28.8,25.4,-100.00,West,260,0.0,0.0,87,0.00,,,0.00,VWS V14.01,2013-02-12 06:40:00,
2013-02-11 22:45:00,28.6,24.9,-100.00,West,260,0.0,0.0,86,0.00,,,0.00,VWS V14.01,2013-02-12 06:45:00,
2013-02-11 22:50:00,28.6,25.2,-100.00,West,260,0.0,0.0,87,0.00,,,0.00,VWS V14.01,2013-02-12 06:50:00,
2013-02-11 22:55:00,28.6,25.2,-100.00,West,260,0.0,0.0,87,0.00,,,0.00,VWS V14.01,2013-02-12 06:55:00,
2013-02-11 23:00:00,28.6,25.5,-100.00,West,260,0.0,0.0,88,0.00,,,0.00,VWS V14.01,2013-02-12 07:00:00,
2013-02-11 23:05:00,28.4,25.3,-100.00,West,260,0.0,0.0,88,0.00,,,0.00,VWS V14.01,2013-02-12 07:05:00,
2013-02-11 23:09:00,28.4,25.3,-100.00,West,260,0.0,0.0,88,0.00,,,0.00,VWS V14.01,2013-02-12 07:09:00,
2013-02-11 23:14:00,28.8,25.7,-100.00,NNE,23,0.0,0.0,88,0.00,,,0.00,VWS V14.01,2013-02-12 07:14:00,
2013-02-11 23:19:00,28.9,26.1,-100.00,NNE,23,0.0,0.0,89,0.00,,,0.00,VWS V14.01,2013-02-12 07:19:00,
2013-02-11 23:24:00,29.1,26.3,-100.00,NNE,23,0.0,0.0,89,0.00,,,0.00,VWS V14.01,2013-02-12 07:24:00,
2013-02-11 23:29:00,28.9,26.1,-100.00,NNE,23,0.0,0.0,89,0.00,,,0.00,VWS V14.01,2013-02-12 07:29:00,
2013-02-11 23:34:00,28.8,25.9,-100.00,NNE,23,0.0,0.0,89,0.00,,,0.00,VWS V14.01,2013-02-12 07:34:00,
2013-02-11 23:39:00,28.6,25.5,-100.00,NNE,23,0.0,0.0,88,0.00,,,0.00,VWS V14.01,2013-02-12 07:39:00,
2013-02-11 23:44:00,28.4,25.6,-100.00,NNE,23,0.0,0.0,89,0.00,,,0.00,VWS V14.01,2013-02-12 07:44:00,
2013-02-11 23:49:00,28.2,25.4,-100.00,NNE,23,0.0,0.0,89,0.00,,,0.00,VWS V14.01,2013-02-12 07:49:00,
2013-02-11 23:54:00,28.0,25.5,-100.00,NNE,23,0.0,0.0,90,0.00,,,0.00,VWS V14.01,2013-02-12 07:54:00,
2013-02-11 23:59:00,28.2,25.7,-100.00,NNE,23,0.0,0.0,90,0.00,,,0.00,VWS V14.01,2013-02-12 07:59:00,